| time (UTC) | temp F | wind direction | speed knots | gust knots | rain 1hr in | rain 24hr in | rain mn in | humidity % | barometer mb |
| 20260505032018 | 57 | 291 | 1.7 | 4.3 | 0.00 | 0.00 | 0.00 | 67 | 1015.0 |
| 20260505031016 | 57 | 293 | 1.7 | 3.5 | 0.00 | 0.00 | 0.00 | 66 | 1014.9 |
| 20260505030036 | 57 | 288 | 1.7 | 4.3 | 0.00 | 0.00 | 0.00 | 67 | 1015.0 |
| 20260505025016 | 58 | 284 | 0.9 | 2.6 | 0.00 | 0.00 | 0.00 | 68 | 1014.9 |
| 20260505024016 | 58 | 285 | 0.9 | 2.6 | 0.00 | 0.00 | 0.00 | 68 | 1014.8 |
| 20260505023016 | 58 | 288 | 1.7 | 3.5 | 0.00 | 0.00 | 0.00 | 69 | 1015.0 |
| 20260505022017 | 58 | 312 | 0.9 | 3.5 | 0.00 | 0.00 | 0.00 | 69 | 1014.9 |
| 20260505021036 | 58 | 280 | 2.6 | 5.2 | 0.00 | 0.00 | 0.00 | 68 | 1014.8 |
| 20260505020016 | 59 | 64 | 0.9 | 2.6 | 0.00 | 0.00 | 0.00 | 66 | 1014.7 |
| 20260505015037 | 59 | 298 | 0.9 | 7.8 | 0.00 | 0.00 | 0.00 | 65 | 1014.8 |
| 20260505014017 | 60 | 336 | 0.9 | 3.5 | 0.00 | 0.00 | 0.00 | 63 | 1014.8 |
| 20260505013017 | 60 | 325 | 0.9 | 5.2 | 0.00 | 0.00 | 0.00 | 63 | 1014.8 |
| 20260505012018 | 61 | 102 | 0.9 | 3.5 | 0.00 | 0.00 | 0.00 | 64 | 1014.9 |
| 20260505011017 | 61 | 73 | 0.9 | 3.5 | 0.00 | 0.00 | 0.00 | 63 | 1014.9 |
| 20260505010018 | 62 | 268 | 0.9 | 4.3 | 0.00 | 0.00 | 0.00 | 62 | 1015.0 |
| 20260505005018 | 62 | 289 | 1.7 | 3.5 | 0.00 | 0.00 | 0.00 | 60 | 1015.1 |
| 20260505004019 | 62 | 299 | 0.9 | 2.6 | 0.00 | 0.00 | 0.00 | 61 | 1015.1 |
| 20260505003019 | 61 | 296 | 0.9 | 3.5 | 0.00 | 0.00 | 0.00 | 63 | 1015.2 |
| 20260505002018 | 60 | 293 | 1.7 | 3.5 | 0.00 | 0.00 | 0.00 | 64 | 1015.2 |
| 20260505001016 | 60 | 283 | 2.6 | 6.1 | 0.00 | 0.00 | 0.00 | 64 | 1015.2 |
| 20260505000016 | 59 | 301 | 1.7 | 6.1 | 0.00 | 0.00 | 0.00 | 65 | 1015.2 |
| 20260504235017 | 59 | 288 | 2.6 | 6.1 | 0.00 | 0.00 | 0.00 | 67 | 1015.1 |
| 20260504234016 | 58 | 314 | 1.7 | 3.5 | 0.00 | 0.00 | 0.00 | 69 | 1015.2 |
| 20260504233016 | 58 | 304 | 2.6 | 7.8 | 0.00 | 0.00 | 0.00 | 71 | 1015.2 |
| 20260504232017 | 59 | 307 | 1.7 | 4.3 | 0.00 | 0.00 | 0.00 | 71 | 1015.1 |
| 20260504231017 | 60 | 301 | 2.6 | 7.0 | 0.00 | 0.00 | 0.00 | 67 | 1015.1 |
| 20260504230016 | 61 | 305 | 1.7 | 6.1 | 0.00 | 0.00 | 0.00 | 66 | 1015.2 |
| 20260504225037 | 62 | 297 | 2.6 | 5.2 | 0.00 | 0.00 | 0.00 | 64 | 1015.1 |
| 20260504224018 | 62 | 312 | 1.7 | 6.1 | 0.00 | 0.00 | 0.00 | 62 | 1015.1 |
| 20260504223017 | 63 | 307 | 1.7 | 7.0 | 0.00 | 0.00 | 0.00 | 60 | 1015.2 |
| 20260504222018 | 64 | 296 | 1.7 | 5.2 | 0.00 | 0.00 | 0.00 | 59 | 1015.1 |
| 20260504221017 | 63 | 299 | 0.9 | 4.3 | 0.00 | 0.00 | 0.00 | 59 | 1015.2 |
| 20260504220018 | 64 | 304 | 2.6 | 6.1 | 0.00 | 0.00 | 0.00 | 59 | 1015.4 |
| 20260504215015 | 63 | 322 | 1.7 | 6.1 | 0.00 | 0.00 | 0.00 | 59 | 1015.5 |
| 20260504214016 | 63 | 317 | 2.6 | 7.8 | 0.00 | 0.00 | 0.00 | 60 | 1015.6 |
| 20260504213056 | 62 | 306 | 2.6 | 7.0 | 0.00 | 0.00 | 0.00 | 63 | 1015.6 |
| 20260504212016 | 62 | 324 | 2.6 | 6.1 | 0.00 | 0.00 | 0.00 | 62 | 1015.6 |
| 20260504211016 | 61 | 301 | 2.6 | 5.2 | 0.00 | 0.00 | 0.00 | 63 | 1015.6 |
| 20260504210016 | 61 | 318 | 3.5 | 6.1 | 0.00 | 0.00 | 0.00 | 63 | 1015.7 |
| 20260504205017 | 62 | 321 | 1.7 | 6.1 | 0.00 | 0.00 | 0.00 | 63 | 1015.7 |
| 20260504204016 | 62 | 341 | 0.9 | 7.8 | 0.00 | 0.00 | 0.00 | 62 | 1015.7 |
| 20260504203016 | 62 | 317 | 2.6 | 5.2 | 0.00 | 0.00 | 0.00 | 61 | 1015.7 |
| 20260504202017 | 61 | 311 | 1.7 | 4.3 | 0.00 | 0.00 | 0.00 | 62 | 1015.6 |
| 20260504201018 | 62 | 298 | 1.7 | 5.2 | 0.00 | 0.00 | 0.00 | 61 | 1015.7 |
| 20260504200017 | 62 | 284 | 1.7 | 4.3 | 0.00 | 0.00 | 0.00 | 61 | 1015.8 |
| 20260504195017 | 62 | 293 | 1.7 | 4.3 | 0.00 | 0.00 | 0.00 | 62 | 1015.9 |
| 20260504194018 | 62 | 304 | 1.7 | 5.2 | 0.00 | 0.00 | 0.00 | 60 | 1015.8 |
| 20260504193016 | 60 | 318 | 0.9 | 3.5 | 0.00 | 0.00 | 0.00 | 65 | 1015.8 |
| 20260504192017 | 59 | 293 | 2.6 | 7.0 | 0.00 | 0.00 | 0.00 | 66 | 1015.9 |
| 20260504191016 | 60 | 286 | 2.6 | 6.1 | 0.00 | 0.00 | 0.00 | 65 | 1015.9 |
| 20260504190016 | 61 | 300 | 1.7 | 3.5 | 0.00 | 0.00 | 0.00 | 62 | 1015.9 |
| 20260504185015 | 63 | 286 | 2.6 | 6.1 | 0.00 | 0.00 | 0.00 | 59 | 1015.8 |
| 20260504184015 | 63 | 287 | 0.0 | 1.7 | 0.00 | 0.00 | 0.00 | 57 | 1015.7 |
| 20260504183015 | 63 | 84 | 0.0 | 3.5 | 0.00 | 0.00 | 0.00 | 58 | 1015.7 |
| 20260504182015 | 64 | 355 | 0.0 | 1.7 | 0.00 | 0.00 | 0.00 | 56 | 1015.8 |
| 20260504181016 | 64 | 86 | 0.0 | 2.6 | 0.00 | 0.00 | 0.00 | 56 | 1015.8 |
| 20260504180037 | 64 | 64 | 0.9 | 2.6 | 0.00 | 0.00 | 0.00 | 56 | 1015.6 |
| 20260504175016 | 63 | 98 | 0.9 | 5.2 | 0.00 | 0.00 | 0.00 | 56 | 1015.5 |
| 20260504174016 | 62 | 330 | 1.7 | 4.3 | 0.00 | 0.00 | 0.00 | 59 | 1015.5 |
| 20260504173017 | 62 | 46 | 0.9 | 2.6 | 0.00 | 0.00 | 0.00 | 59 | 1015.5 |
| 20260504172018 | 61 | 82 | 0.0 | 0.9 | 0.00 | 0.00 | 0.00 | 60 | 1015.5 |
| 20260504171038 | 60 | 329 | 0.9 | 3.5 | 0.00 | 0.00 | 0.00 | 61 | 1015.4 |
| 20260504151017 | 57 | 300 | 0.9 | 2.6 | 0.00 | 0.00 | 0.00 | 69 | 1015.5 |
| 20260504141057 | 51 | 289 | 1.7 | 2.6 | 0.00 | 0.00 | 0.00 | 80 | 1015.2 |
| 20260504081036 | 49 | 282 | 0.9 | 2.6 | 0.00 | 0.00 | 0.00 | 86 | 1015.2 |
| 20260504050016 | 53 | 300 | 0.9 | 4.3 | 0.00 | 0.00 | 0.00 | 75 | 1014.8 |
| 20260504045037 | 53 | 277 | 0.0 | 1.7 | 0.00 | 0.00 | 0.00 | 74 | 1014.7 |
| 20260504044036 | 53 | 279 | 0.9 | 4.3 | 0.00 | 0.00 | 0.00 | 73 | 1014.5 |
| 20260504043016 | 54 | 304 | 0.9 | 2.6 | 0.00 | 0.00 | 0.00 | 71 | 1014.5 |
| 20260504042017 | 54 | 345 | 0.9 | 2.6 | 0.00 | 0.00 | 0.00 | 71 | 1014.3 |
| 20260504041017 | 54 | 349 | 1.7 | 5.2 | 0.00 | 0.00 | 0.00 | 70 | 1014.2 |
| 20260504040017 | 54 | 339 | 2.6 | 7.0 | 0.00 | 0.00 | 0.00 | 69 | 1014.1 |
| 20260504035018 | 54 | 328 | 2.6 | 9.6 | 0.00 | 0.00 | 0.00 | 71 | 1013.8 |
| 20260504034018 | 55 | 334 | 2.6 | 7.8 | 0.00 | 0.00 | 0.00 | 71 | 1013.8 |
| 20260504033018 | 55 | 352 | 1.7 | 6.1 | 0.00 | 0.00 | 0.00 | 70 | 1013.7 |